owner,sensor,date,latitude,longitude,air_pressure(mBar),qcFlag 
COMPS,ioos:station:USF.COMPS:C10:1,2019-09-01T00:35:00,27.1690,-82.9260,1013.12,11111222 
COMPS,ioos:station:USF.COMPS:C10:1,2019-09-01T01:35:00,27.1690,-82.9260,1013.82,11111222 
COMPS,ioos:station:USF.COMPS:C10:1,2019-09-01T02:35:00,27.1690,-82.9260,1014.32,11111222 
COMPS,ioos:station:USF.COMPS:C10:1,2019-09-01T04:35:00,27.1690,-82.9260,1014.26,11111222 
COMPS,ioos:station:USF.COMPS:C10:1,2019-09-01T05:35:00,27.1690,-82.9260,1013.63,11111222 
COMPS,ioos:station:USF.COMPS:C10:1,2019-09-01T08:35:00,27.1690,-82.9260,1013.24,11111222 
COMPS,ioos:station:USF.COMPS:C10:1,2019-09-01T09:35:00,27.1690,-82.9260,1013.16,11111222 
COMPS,ioos:station:USF.COMPS:C10:1,2019-09-01T13:35:00,27.1690,-82.9260,1014.32,11111222 
COMPS,ioos:station:USF.COMPS:C10:1,2019-09-01T14:35:00,27.1690,-82.9260,1014.6,11111222 
COMPS,ioos:station:USF.COMPS:C10:1,2019-09-01T15:35:00,27.1690,-82.9260,1014.61,11111222 
COMPS,ioos:station:USF.COMPS:C10:1,2019-09-01T16:35:00,27.1690,-82.9260,1014.16,11111222 
COMPS,ioos:station:USF.COMPS:C10:1,2019-09-01T17:35:00,27.1690,-82.9260,1013.87,11111222 
COMPS,ioos:station:USF.COMPS:C10:1,2019-09-01T18:35:00,27.1690,-82.9260,1012.84,11111222 
COMPS,ioos:station:USF.COMPS:C10:1,2019-09-01T19:35:00,27.1690,-82.9260,1012.14,11111222 
COMPS,ioos:station:USF.COMPS:C10:1,2019-09-01T20:35:00,27.1690,-82.9260,1011.67,11111222 
COMPS,ioos:station:USF.COMPS:C10:1,2019-09-01T21:35:00,27.1690,-82.9260,1012.06,11111222 
COMPS,ioos:station:USF.COMPS:C10:1,2019-09-01T22:35:00,27.1690,-82.9260,1012.09,11111222 
COMPS,ioos:station:USF.COMPS:C10:1,2019-09-02T03:35:00,27.1690,-82.9260,1012.6,11111222 
COMPS,ioos:station:USF.COMPS:C10:1,2019-09-02T08:35:00,27.1690,-82.9260,1010.1,11111222 
COMPS,ioos:station:USF.COMPS:C10:1,2019-09-02T12:35:00,27.1690,-82.9260,1011.43,11111222 
COMPS,ioos:station:USF.COMPS:C10:1,2019-09-02T15:35:00,27.1690,-82.9260,1011.53,11111222 
COMPS,ioos:station:USF.COMPS:C10:1,2019-09-02T16:35:00,27.1690,-82.9260,1011.24,11111222 
COMPS,ioos:station:USF.COMPS:C10:1,2019-09-02T17:35:00,27.1690,-82.9260,1010.51,11111222 
COMPS,ioos:station:USF.COMPS:C10:1,2019-09-02T19:35:00,27.1690,-82.9260,1009.17,11111222 
COMPS,ioos:station:USF.COMPS:C10:1,2019-09-02T20:35:00,27.1690,-82.9260,1008.75,11111222 
COMPS,ioos:station:USF.COMPS:C10:1,2019-09-02T21:35:00,27.1690,-82.9260,1008.77,11111222 
COMPS,ioos:station:USF.COMPS:C10:1,2019-09-02T23:35:00,27.1690,-82.9260,1008.9,11111222 
COMPS,ioos:station:USF.COMPS:C10:1,2019-09-03T01:35:00,27.1690,-82.9260,1009.55,11111222 
COMPS,ioos:station:USF.COMPS:C10:1,2019-09-03T03:35:00,27.1690,-82.9260,1009.9,11111222 
COMPS,ioos:station:USF.COMPS:C10:1,2019-09-03T04:35:00,27.1690,-82.9260,1009.47,11111222 
COMPS,ioos:station:USF.COMPS:C10:1,2019-09-03T06:35:00,27.1690,-82.9260,1008.6,11111222 
COMPS,ioos:station:USF.COMPS:C10:1,2019-09-03T08:35:00,27.1690,-82.9260,1007.93,11111222 
COMPS,ioos:station:USF.COMPS:C10:1,2019-09-03T12:35:00,27.1690,-82.9260,1009.85,11111222 
COMPS,ioos:station:USF.COMPS:C10:1,2019-09-03T13:35:00,27.1690,-82.9260,1010.18,11111222 
COMPS,ioos:station:USF.COMPS:C10:1,2019-09-03T14:35:00,27.1690,-82.9260,1010.3,11111222 
COMPS,ioos:station:USF.COMPS:C10:1,2019-09-03T15:35:00,27.1690,-82.9260,1010.48,11111222 
COMPS,ioos:station:USF.COMPS:C10:1,2019-09-03T17:35:00,27.1690,-82.9260,1009.44,11111222 
COMPS,ioos:station:USF.COMPS:C10:1,2019-09-03T18:35:00,27.1690,-82.9260,1008.92,11111222 
COMPS,ioos:station:USF.COMPS:C10:1,2019-09-03T19:35:00,27.1690,-82.9260,1008.47,11111222 
COMPS,ioos:station:USF.COMPS:C10:1,2019-09-03T20:35:00,27.1690,-82.9260,1007.98,11111222 
COMPS,ioos:station:USF.COMPS:C10:1,2019-09-03T21:35:00,27.1690,-82.9260,1007.79,11111222 
COMPS,ioos:station:USF.COMPS:C10:1,2019-09-03T22:35:00,27.1690,-82.9260,1008.21,11111222 
COMPS,ioos:station:USF.COMPS:C10:1,2019-09-03T23:35:00,27.1690,-82.9260,1008.54,11111222 
COMPS,ioos:station:USF.COMPS:C10:1,2019-09-04T00:35:00,27.1690,-82.9260,1009.01,11111222 
COMPS,ioos:station:USF.COMPS:C10:1,2019-09-04T02:35:00,27.1690,-82.9260,1009.93,11111222 
COMPS,ioos:station:USF.COMPS:C10:1,2019-09-04T03:35:00,27.1690,-82.9260,1010.05,11111222 
COMPS,ioos:station:USF.COMPS:C10:1,2019-09-04T04:35:00,27.1690,-82.9260,1009.91,11111222 
COMPS,ioos:station:USF.COMPS:C10:1,2019-09-04T05:35:00,27.1690,-82.9260,1009.67,11111222 
COMPS,ioos:station:USF.COMPS:C10:1,2019-09-04T06:35:00,27.1690,-82.9260,1009.05,11111222 
COMPS,ioos:station:USF.COMPS:C10:1,2019-09-04T07:35:00,27.1690,-82.9260,1008.85,11111222 
COMPS,ioos:station:USF.COMPS:C10:1,2019-09-04T08:35:00,27.1690,-82.9260,1009.14,11111222 
COMPS,ioos:station:USF.COMPS:C10:1,2019-09-04T09:35:00,27.1690,-82.9260,1009.61,11111222 
COMPS,ioos:station:USF.COMPS:C10:1,2019-09-04T10:35:00,27.1690,-82.9260,1009.82,11111222 
COMPS,ioos:station:USF.COMPS:C10:1,2019-09-04T11:35:00,27.1690,-82.9260,1010.5,11111222 
COMPS,ioos:station:USF.COMPS:C10:1,2019-09-04T12:35:00,27.1690,-82.9260,1011.24,11111222 
COMPS,ioos:station:USF.COMPS:C10:1,2019-09-04T13:35:00,27.1690,-82.9260,1011.46,11111222 
COMPS,ioos:station:USF.COMPS:C10:1,2019-09-04T14:35:00,27.1690,-82.9260,1011.72,11111222 
COMPS,ioos:station:USF.COMPS:C10:1,2019-09-04T15:35:00,27.1690,-82.9260,1012.15,11111222 
COMPS,ioos:station:USF.COMPS:C10:1,2019-09-04T16:35:00,27.1690,-82.9260,1012.08,11111222 
COMPS,ioos:station:USF.COMPS:C10:1,2019-09-04T17:35:00,27.1690,-82.9260,1012.0,11111222 
COMPS,ioos:station:USF.COMPS:C10:1,2019-09-04T18:35:00,27.1690,-82.9260,1011.69,11111222 
COMPS,ioos:station:USF.COMPS:C10:1,2019-09-04T19:35:00,27.1690,-82.9260,1011.23,11111222 
COMPS,ioos:station:USF.COMPS:C10:1,2019-09-04T20:35:00,27.1690,-82.9260,1011.45,11111222 
COMPS,ioos:station:USF.COMPS:C10:1,2019-09-04T21:35:00,27.1690,-82.9260,1011.85,11111222 
COMPS,ioos:station:USF.COMPS:C10:1,2019-09-04T22:35:00,27.1690,-82.9260,1011.79,11111222 
COMPS,ioos:station:USF.COMPS:C10:1,2019-09-04T23:35:00,27.1690,-82.9260,1011.91,11111222 
COMPS,ioos:station:USF.COMPS:C10:1,2019-09-05T00:35:00,27.1690,-82.9260,1012.55,11111222 
COMPS,ioos:station:USF.COMPS:C10:1,2019-09-05T01:35:00,27.1690,-82.9260,1012.89,11111222 
COMPS,ioos:station:USF.COMPS:C10:1,2019-09-05T02:35:00,27.1690,-82.9260,1013.23,11111222 
COMPS,ioos:station:USF.COMPS:C10:1,2019-09-05T03:35:00,27.1690,-82.9260,1013.35,11111222 
COMPS,ioos:station:USF.COMPS:C10:1,2019-09-05T04:35:00,27.1690,-82.9260,1013.54,11111222 
COMPS,ioos:station:USF.COMPS:C10:1,2019-09-05T05:35:00,27.1690,-82.9260,1013.68,11111222 
COMPS,ioos:station:USF.COMPS:C10:1,2019-09-05T06:35:00,27.1690,-82.9260,1013.29,11111222 
COMPS,ioos:station:USF.COMPS:C10:1,2019-09-05T07:35:00,27.1690,-82.9260,1013.18,11111222 
COMPS,ioos:station:USF.COMPS:C10:1,2019-09-05T08:35:00,27.1690,-82.9260,1013.18,11111222 
COMPS,ioos:station:USF.COMPS:C10:1,2019-09-05T09:35:00,27.1690,-82.9260,1013.41,11111222 
COMPS,ioos:station:USF.COMPS:C10:1,2019-09-05T10:35:00,27.1690,-82.9260,1013.82,11111222 
COMPS,ioos:station:USF.COMPS:C10:1,2019-09-05T11:35:00,27.1690,-82.9260,1014.26,11111222 
COMPS,ioos:station:USF.COMPS:C10:1,2019-09-05T12:35:00,27.1690,-82.9260,1014.84,11111222 
COMPS,ioos:station:USF.COMPS:C10:1,2019-09-05T13:35:00,27.1690,-82.9260,1015.29,11111222 
COMPS,ioos:station:USF.COMPS:C10:1,2019-09-05T14:35:00,27.1690,-82.9260,1015.31,11111222 
COMPS,ioos:station:USF.COMPS:C10:1,2019-09-05T15:35:00,27.1690,-82.9260,1015.49,11111222 
COMPS,ioos:station:USF.COMPS:C10:1,2019-09-05T16:35:00,27.1690,-82.9260,1015.47,11111222 
COMPS,ioos:station:USF.COMPS:C10:1,2019-09-05T17:35:00,27.1690,-82.9260,1015.11,11111222 
COMPS,ioos:station:USF.COMPS:C10:1,2019-09-05T18:35:00,27.1690,-82.9260,1014.77,11111222 
COMPS,ioos:station:USF.COMPS:C10:1,2019-09-05T19:35:00,27.1690,-82.9260,1014.42,11111222 
COMPS,ioos:station:USF.COMPS:C10:1,2019-09-05T20:35:00,27.1690,-82.9260,1013.92,11111222 
COMPS,ioos:station:USF.COMPS:C10:1,2019-09-05T21:35:00,27.1690,-82.9260,1013.79,11111222 
COMPS,ioos:station:USF.COMPS:C10:1,2019-09-05T22:35:00,27.1690,-82.9260,1013.8,11111222 
COMPS,ioos:station:USF.COMPS:C10:1,2019-09-05T23:35:00,27.1690,-82.9260,1013.74,11111222 
COMPS,ioos:station:USF.COMPS:C10:1,2019-09-06T00:35:00,27.1690,-82.9260,1014.01,11111222 
COMPS,ioos:station:USF.COMPS:C10:1,2019-09-06T01:35:00,27.1690,-82.9260,1014.29,11111222 
COMPS,ioos:station:USF.COMPS:C10:1,2019-09-06T02:35:00,27.1690,-82.9260,1014.52,11111222 
COMPS,ioos:station:USF.COMPS:C10:1,2019-09-06T03:35:00,27.1690,-82.9260,1014.65,11111222 
COMPS,ioos:station:USF.COMPS:C10:1,2019-09-06T04:35:00,27.1690,-82.9260,1014.27,11111222 
COMPS,ioos:station:USF.COMPS:C10:1,2019-09-06T06:35:00,27.1690,-82.9260,1013.75,11111222 
COMPS,ioos:station:USF.COMPS:C10:1,2019-09-06T07:35:00,27.1690,-82.9260,1013.27,11111222 
COMPS,ioos:station:USF.COMPS:C10:1,2019-09-06T08:35:00,27.1690,-82.9260,1013.11,11111222 
COMPS,ioos:station:USF.COMPS:C10:1,2019-09-06T09:35:00,27.1690,-82.9260,1012.97,11111222 
COMPS,ioos:station:USF.COMPS:C10:1,2019-09-06T10:35:00,27.1690,-82.9260,1013.42,11111222 
COMPS,ioos:station:USF.COMPS:C10:1,2019-09-06T11:35:00,27.1690,-82.9260,1013.89,11111222 
COMPS,ioos:station:USF.COMPS:C10:1,2019-09-06T12:35:00,27.1690,-82.9260,1014.09,11111222 
COMPS,ioos:station:USF.COMPS:C10:1,2019-09-06T13:35:00,27.1690,-82.9260,1014.44,11111222 
COMPS,ioos:station:USF.COMPS:C10:1,2019-09-06T14:35:00,27.1690,-82.9260,1014.88,11111222 
COMPS,ioos:station:USF.COMPS:C10:1,2019-09-06T15:35:00,27.1690,-82.9260,1014.77,11111222 
COMPS,ioos:station:USF.COMPS:C10:1,2019-09-06T16:35:00,27.1690,-82.9260,1014.6,11111222 
COMPS,ioos:station:USF.COMPS:C10:1,2019-09-06T17:35:00,27.1690,-82.9260,1014.24,11111222 
COMPS,ioos:station:USF.COMPS:C10:1,2019-09-06T18:35:00,27.1690,-82.9260,1013.73,11111222 
COMPS,ioos:station:USF.COMPS:C10:1,2019-09-06T19:35:00,27.1690,-82.9260,1013.12,11111222 
COMPS,ioos:station:USF.COMPS:C10:1,2019-09-06T20:35:00,27.1690,-82.9260,1012.7,11111222 
COMPS,ioos:station:USF.COMPS:C10:1,2019-09-06T21:35:00,27.1690,-82.9260,1012.32,11111222 
COMPS,ioos:station:USF.COMPS:C10:1,2019-09-06T22:35:00,27.1690,-82.9260,1012.44,11111222 
COMPS,ioos:station:USF.COMPS:C10:1,2019-09-06T23:35:00,27.1690,-82.9260,1012.46,11111222 
COMPS,ioos:station:USF.COMPS:C10:1,2019-09-07T00:35:00,27.1690,-82.9260,1012.99,11111222 
COMPS,ioos:station:USF.COMPS:C10:1,2019-09-07T01:35:00,27.1690,-82.9260,1013.25,11111222 
COMPS,ioos:station:USF.COMPS:C10:1,2019-09-07T02:35:00,27.1690,-82.9260,1013.7,11111222 
COMPS,ioos:station:USF.COMPS:C10:1,2019-09-07T03:35:00,27.1690,-82.9260,1013.73,11111222 
COMPS,ioos:station:USF.COMPS:C10:1,2019-09-07T04:35:00,27.1690,-82.9260,1013.61,11111222 
COMPS,ioos:station:USF.COMPS:C10:1,2019-09-07T05:35:00,27.1690,-82.9260,1013.47,11111222 
COMPS,ioos:station:USF.COMPS:C10:1,2019-09-07T06:35:00,27.1690,-82.9260,1013.15,11111222 
COMPS,ioos:station:USF.COMPS:C10:1,2019-09-07T07:35:00,27.1690,-82.9260,1013.0,11111222 
COMPS,ioos:station:USF.COMPS:C10:1,2019-09-07T08:35:00,27.1690,-82.9260,1012.76,11111222 
COMPS,ioos:station:USF.COMPS:C10:1,2019-09-07T09:35:00,27.1690,-82.9260,1013.4,11111222 
COMPS,ioos:station:USF.COMPS:C10:1,2019-09-07T10:35:00,27.1690,-82.9260,1013.83,11111222 
COMPS,ioos:station:USF.COMPS:C10:1,2019-09-07T11:35:00,27.1690,-82.9260,1014.13,11111222 
COMPS,ioos:station:USF.COMPS:C10:1,2019-09-07T12:35:00,27.1690,-82.9260,1014.97,11111222 
COMPS,ioos:station:USF.COMPS:C10:1,2019-09-07T13:35:00,27.1690,-82.9260,1015.28,11111222 
COMPS,ioos:station:USF.COMPS:C10:1,2019-09-07T14:35:00,27.1690,-82.9260,1015.45,11111222 
COMPS,ioos:station:USF.COMPS:C10:1,2019-09-07T15:35:00,27.1690,-82.9260,1015.28,11111222 
COMPS,ioos:station:USF.COMPS:C10:1,2019-09-07T16:35:00,27.1690,-82.9260,1014.97,11111222 
COMPS,ioos:station:USF.COMPS:C10:1,2019-09-07T17:35:00,27.1690,-82.9260,1014.79,11111222 
COMPS,ioos:station:USF.COMPS:C10:1,2019-09-07T18:35:00,27.1690,-82.9260,1014.21,11111222 
COMPS,ioos:station:USF.COMPS:C10:1,2019-09-07T19:35:00,27.1690,-82.9260,1013.63,11111222 
COMPS,ioos:station:USF.COMPS:C10:1,2019-09-07T20:35:00,27.1690,-82.9260,1013.36,11111222 
COMPS,ioos:station:USF.COMPS:C10:1,2019-09-07T22:35:00,27.1690,-82.9260,1013.36,11111222 
COMPS,ioos:station:USF.COMPS:C10:1,2019-09-07T23:35:00,27.1690,-82.9260,1013.34,11111222 
COMPS,ioos:station:USF.COMPS:C10:1,2019-09-08T01:35:00,27.1690,-82.9260,1014.0,11111222 
COMPS,ioos:station:USF.COMPS:C10:1,2019-09-08T02:35:00,27.1690,-82.9260,1014.33,11111222 
COMPS,ioos:station:USF.COMPS:C10:1,2019-09-08T03:35:00,27.1690,-82.9260,1014.55,11111222 
COMPS,ioos:station:USF.COMPS:C10:1,2019-09-08T04:35:00,27.1690,-82.9260,1014.67,11111222 
COMPS,ioos:station:USF.COMPS:C10:1,2019-09-08T05:35:00,27.1690,-82.9260,1014.8,11111222 
COMPS,ioos:station:USF.COMPS:C10:1,2019-09-08T06:35:00,27.1690,-82.9260,1014.74,11111222 
COMPS,ioos:station:USF.COMPS:C10:1,2019-09-08T07:35:00,27.1690,-82.9260,1014.44,11111222 
COMPS,ioos:station:USF.COMPS:C10:1,2019-09-08T08:35:00,27.1690,-82.9260,1014.52,11111222 
COMPS,ioos:station:USF.COMPS:C10:1,2019-09-08T09:35:00,27.1690,-82.9260,1014.95,11111222 
COMPS,ioos:station:USF.COMPS:C10:1,2019-09-08T10:35:00,27.1690,-82.9260,1015.61,11111222 
COMPS,ioos:station:USF.COMPS:C10:1,2019-09-08T11:35:00,27.1690,-82.9260,1016.29,11111222 
COMPS,ioos:station:USF.COMPS:C10:1,2019-09-08T12:35:00,27.1690,-82.9260,1016.65,11111222 
COMPS,ioos:station:USF.COMPS:C10:1,2019-09-08T13:35:00,27.1690,-82.9260,1016.85,11111222 
COMPS,ioos:station:USF.COMPS:C10:1,2019-09-08T14:35:00,27.1690,-82.9260,1017.19,11111222 
COMPS,ioos:station:USF.COMPS:C10:1,2019-09-08T15:35:00,27.1690,-82.9260,1017.38,11111222 
COMPS,ioos:station:USF.COMPS:C10:1,2019-09-08T16:35:00,27.1690,-82.9260,1017.18,11111222 
COMPS,ioos:station:USF.COMPS:C10:1,2019-09-08T17:35:00,27.1690,-82.9260,1017.07,11111222 
COMPS,ioos:station:USF.COMPS:C10:1,2019-09-08T18:35:00,27.1690,-82.9260,1016.71,11111222 
COMPS,ioos:station:USF.COMPS:C10:1,2019-09-08T19:35:00,27.1690,-82.9260,1016.27,11111222 
COMPS,ioos:station:USF.COMPS:C10:1,2019-09-08T20:35:00,27.1690,-82.9260,1015.94,11111222 
COMPS,ioos:station:USF.COMPS:C10:1,2019-09-08T21:35:00,27.1690,-82.9260,1015.77,11111222 
COMPS,ioos:station:USF.COMPS:C10:1,2019-09-08T22:35:00,27.1690,-82.9260,1015.89,11111222 
COMPS,ioos:station:USF.COMPS:C10:1,2019-09-08T23:35:00,27.1690,-82.9260,1015.87,11111222 
COMPS,ioos:station:USF.COMPS:C10:1,2019-09-09T00:35:00,27.1690,-82.9260,1016.27,11111222 
COMPS,ioos:station:USF.COMPS:C10:1,2019-09-09T01:35:00,27.1690,-82.9260,1016.65,11111222 
COMPS,ioos:station:USF.COMPS:C10:1,2019-09-09T02:35:00,27.1690,-82.9260,1017.2,11111222 
COMPS,ioos:station:USF.COMPS:C10:1,2019-09-09T03:35:00,27.1690,-82.9260,1017.5,11111222 
COMPS,ioos:station:USF.COMPS:C10:1,2019-09-09T04:35:00,27.1690,-82.9260,1017.45,11111222 
COMPS,ioos:station:USF.COMPS:C10:1,2019-09-09T05:35:00,27.1690,-82.9260,1017.33,11111222 
COMPS,ioos:station:USF.COMPS:C10:1,2019-09-09T06:35:00,27.1690,-82.9260,1017.19,11111222 
COMPS,ioos:station:USF.COMPS:C10:1,2019-09-09T07:35:00,27.1690,-82.9260,1017.19,11111222 
COMPS,ioos:station:USF.COMPS:C10:1,2019-09-09T08:35:00,27.1690,-82.9260,1017.22,11111222 
COMPS,ioos:station:USF.COMPS:C10:1,2019-09-09T09:35:00,27.1690,-82.9260,1017.51,11111222 
COMPS,ioos:station:USF.COMPS:C10:1,2019-09-09T10:35:00,27.1690,-82.9260,1017.88,11111222 
COMPS,ioos:station:USF.COMPS:C10:1,2019-09-09T12:35:00,27.1690,-82.9260,1019.04,11111222 
COMPS,ioos:station:USF.COMPS:C10:1,2019-09-09T13:35:00,27.1690,-82.9260,1019.65,11111222 
COMPS,ioos:station:USF.COMPS:C10:1,2019-09-09T14:35:00,27.1690,-82.9260,1019.94,11111222 
COMPS,ioos:station:USF.COMPS:C10:1,2019-09-09T15:35:00,27.1690,-82.9260,1019.92,11111222 
COMPS,ioos:station:USF.COMPS:C10:1,2019-09-09T16:35:00,27.1690,-82.9260,1019.86,11111222 
COMPS,ioos:station:USF.COMPS:C10:1,2019-09-09T17:35:00,27.1690,-82.9260,1019.69,11111222 
COMPS,ioos:station:USF.COMPS:C10:1,2019-09-09T21:35:00,27.1690,-82.9260,1017.41,11111222 
COMPS,ioos:station:USF.COMPS:C10:1,2019-09-09T22:35:00,27.1690,-82.9260,1017.43,11111222 
COMPS,ioos:station:USF.COMPS:C10:1,2019-09-09T23:35:00,27.1690,-82.9260,1018.17,11111222 
COMPS,ioos:station:USF.COMPS:C10:1,2019-09-10T00:35:00,27.1690,-82.9260,1018.53,11111222 
COMPS,ioos:station:USF.COMPS:C10:1,2019-09-10T01:35:00,27.1690,-82.9260,1018.98,11111222 
COMPS,ioos:station:USF.COMPS:C10:1,2019-09-10T03:35:00,27.1690,-82.9260,1020.05,11111222 
COMPS,ioos:station:USF.COMPS:C10:1,2019-09-10T04:35:00,27.1690,-82.9260,1019.4,11111222 
COMPS,ioos:station:USF.COMPS:C10:1,2019-09-10T05:35:00,27.1690,-82.9260,1019.32,11111222 
COMPS,ioos:station:USF.COMPS:C10:1,2019-09-10T06:35:00,27.1690,-82.9260,1018.91,11111222 
COMPS,ioos:station:USF.COMPS:C10:1,2019-09-10T07:35:00,27.1690,-82.9260,1018.55,11111222 
COMPS,ioos:station:USF.COMPS:C10:1,2019-09-10T08:35:00,27.1690,-82.9260,1018.85,11111222 
COMPS,ioos:station:USF.COMPS:C10:1,2019-09-10T09:35:00,27.1690,-82.9260,1019.27,11111222 
COMPS,ioos:station:USF.COMPS:C10:1,2019-09-10T10:35:00,27.1690,-82.9260,1019.68,11111222 
COMPS,ioos:station:USF.COMPS:C10:1,2019-09-10T13:35:00,27.1690,-82.9260,1021.52,11111222 
COMPS,ioos:station:USF.COMPS:C10:1,2019-09-10T14:35:00,27.1690,-82.9260,1021.77,11111222 
COMPS,ioos:station:USF.COMPS:C10:1,2019-09-10T17:35:00,27.1690,-82.9260,1020.93,11111222 
COMPS,ioos:station:USF.COMPS:C10:1,2019-09-10T18:35:00,27.1690,-82.9260,1020.55,11111222 
COMPS,ioos:station:USF.COMPS:C10:1,2019-09-10T19:35:00,27.1690,-82.9260,1020.13,11111222 
COMPS,ioos:station:USF.COMPS:C10:1,2019-09-10T21:35:00,27.1690,-82.9260,1019.06,11111222 
COMPS,ioos:station:USF.COMPS:C10:1,2019-09-10T22:35:00,27.1690,-82.9260,1018.69,11111222 
COMPS,ioos:station:USF.COMPS:C10:1,2019-09-10T23:35:00,27.1690,-82.9260,1018.47,11111222 
COMPS,ioos:station:USF.COMPS:C10:1,2019-09-11T01:35:00,27.1690,-82.9260,1019.34,11111222 
COMPS,ioos:station:USF.COMPS:C10:1,2019-09-11T03:35:00,27.1690,-82.9260,1020.17,11111222 
COMPS,ioos:station:USF.COMPS:C10:1,2019-09-11T05:35:00,27.1690,-82.9260,1020.24,11111222 
COMPS,ioos:station:USF.COMPS:C10:1,2019-09-11T06:35:00,27.1690,-82.9260,1019.71,11111222 
COMPS,ioos:station:USF.COMPS:C10:1,2019-09-11T08:35:00,27.1690,-82.9260,1019.1,11111222 
COMPS,ioos:station:USF.COMPS:C10:1,2019-09-11T10:35:00,27.1690,-82.9260,1019.28,11111222 
COMPS,ioos:station:USF.COMPS:C10:1,2019-09-11T11:35:00,27.1690,-82.9260,1019.68,11111222 
COMPS,ioos:station:USF.COMPS:C10:1,2019-09-11T14:35:00,27.1690,-82.9260,1020.31,11111222 
COMPS,ioos:station:USF.COMPS:C10:1,2019-09-11T16:35:00,27.1690,-82.9260,1019.59,11111222 
COMPS,ioos:station:USF.COMPS:C10:1,2019-09-11T17:35:00,27.1690,-82.9260,1018.94,11111222 
COMPS,ioos:station:USF.COMPS:C10:1,2019-09-11T18:35:00,27.1690,-82.9260,1018.39,11111222 
COMPS,ioos:station:USF.COMPS:C10:1,2019-09-12T02:35:00,27.1690,-82.9260,1017.08,11111222 
COMPS,ioos:station:USF.COMPS:C10:1,2019-09-12T03:35:00,27.1690,-82.9260,1017.2,11111222 
COMPS,ioos:station:USF.COMPS:C10:1,2019-09-12T13:35:00,27.1690,-82.9260,1016.63,11111222 
COMPS,ioos:station:USF.COMPS:C10:1,2019-09-13T19:35:00,27.1690,-82.9260,1013.96,11111222 
COMPS,ioos:station:USF.COMPS:C10:1,2019-09-14T01:35:00,27.1690,-82.9260,1015.44,11111222 
COMPS,ioos:station:USF.COMPS:C10:1,2019-09-14T13:35:00,27.1690,-82.9260,1015.72,11111222 
COMPS,ioos:station:USF.COMPS:C10:1,2019-09-14T15:35:00,27.1690,-82.9260,1015.51,11111222 
COMPS,ioos:station:USF.COMPS:C10:1,2019-09-14T16:35:00,27.1690,-82.9260,1014.8,11111222 
COMPS,ioos:station:USF.COMPS:C10:1,2019-09-14T17:35:00,27.1690,-82.9260,1014.2,11111222 
COMPS,ioos:station:USF.COMPS:C10:1,2019-09-14T19:35:00,27.1690,-82.9260,1013.29,11111222 
COMPS,ioos:station:USF.COMPS:C10:1,2019-09-14T20:35:00,27.1690,-82.9260,1013.72,11111222 
COMPS,ioos:station:USF.COMPS:C10:1,2019-09-14T22:35:00,27.1690,-82.9260,1012.88,11111222 
COMPS,ioos:station:USF.COMPS:C10:1,2019-09-14T23:35:00,27.1690,-82.9260,1013.64,11111222 
COMPS,ioos:station:USF.COMPS:C10:1,2019-09-15T00:35:00,27.1690,-82.9260,1014.16,11111222 
COMPS,ioos:station:USF.COMPS:C10:1,2019-09-15T02:35:00,27.1690,-82.9260,1014.92,11111222 
COMPS,ioos:station:USF.COMPS:C10:1,2019-09-15T04:35:00,27.1690,-82.9260,1014.12,11111222 
COMPS,ioos:station:USF.COMPS:C10:1,2019-09-15T05:35:00,27.1690,-82.9260,1013.77,11111222 
COMPS,ioos:station:USF.COMPS:C10:1,2019-09-15T06:35:00,27.1690,-82.9260,1014.19,11111222 
COMPS,ioos:station:USF.COMPS:C10:1,2019-09-15T07:35:00,27.1690,-82.9260,1013.97,11111222 
COMPS,ioos:station:USF.COMPS:C10:1,2019-09-15T08:35:00,27.1690,-82.9260,1013.39,11111222 
COMPS,ioos:station:USF.COMPS:C10:1,2019-09-15T11:35:00,27.1690,-82.9260,1013.5,11111222 
COMPS,ioos:station:USF.COMPS:C10:1,2019-09-15T13:35:00,27.1690,-82.9260,1014.79,11111222 
COMPS,ioos:station:USF.COMPS:C10:1,2019-09-15T14:35:00,27.1690,-82.9260,1015.19,11111222 
COMPS,ioos:station:USF.COMPS:C10:1,2019-09-15T15:35:00,27.1690,-82.9260,1015.19,11111222 
COMPS,ioos:station:USF.COMPS:C10:1,2019-09-15T16:35:00,27.1690,-82.9260,1014.81,11111222 
COMPS,ioos:station:USF.COMPS:C10:1,2019-09-15T17:35:00,27.1690,-82.9260,1014.33,11111222 
COMPS,ioos:station:USF.COMPS:C10:1,2019-09-15T18:35:00,27.1690,-82.9260,1013.89,11111222 
COMPS,ioos:station:USF.COMPS:C10:1,2019-09-15T19:35:00,27.1690,-82.9260,1013.29,11111222 
COMPS,ioos:station:USF.COMPS:C10:1,2019-09-15T20:35:00,27.1690,-82.9260,1013.05,11111222 
COMPS,ioos:station:USF.COMPS:C10:1,2019-09-15T21:35:00,27.1690,-82.9260,1013.02,11111222 
COMPS,ioos:station:USF.COMPS:C10:1,2019-09-15T22:35:00,27.1690,-82.9260,1013.81,11111222 
COMPS,ioos:station:USF.COMPS:C10:1,2019-09-15T23:35:00,27.1690,-82.9260,1014.13,11111222 
COMPS,ioos:station:USF.COMPS:C10:1,2019-09-16T00:35:00,27.1690,-82.9260,1013.93,11111222 
COMPS,ioos:station:USF.COMPS:C10:1,2019-09-16T01:35:00,27.1690,-82.9260,1014.11,11111222 
COMPS,ioos:station:USF.COMPS:C10:1,2019-09-16T02:35:00,27.1690,-82.9260,1014.44,11111222 
COMPS,ioos:station:USF.COMPS:C10:1,2019-09-16T03:35:00,27.1690,-82.9260,1014.56,11111222 
COMPS,ioos:station:USF.COMPS:C10:1,2019-09-16T04:35:00,27.1690,-82.9260,1014.4,11111222 
COMPS,ioos:station:USF.COMPS:C10:1,2019-09-16T05:35:00,27.1690,-82.9260,1014.15,11111222 
COMPS,ioos:station:USF.COMPS:C10:1,2019-09-16T06:35:00,27.1690,-82.9260,1014.27,11111222 
COMPS,ioos:station:USF.COMPS:C10:1,2019-09-16T07:35:00,27.1690,-82.9260,1014.09,11111222 
COMPS,ioos:station:USF.COMPS:C10:1,2019-09-16T08:35:00,27.1690,-82.9260,1013.98,11111222 
COMPS,ioos:station:USF.COMPS:C10:1,2019-09-16T09:35:00,27.1690,-82.9260,1014.23,11111222 
COMPS,ioos:station:USF.COMPS:C10:1,2019-09-16T10:35:00,27.1690,-82.9260,1014.76,11111222 
COMPS,ioos:station:USF.COMPS:C10:1,2019-09-16T11:35:00,27.1690,-82.9260,1015.46,11111222 
COMPS,ioos:station:USF.COMPS:C10:1,2019-09-16T12:35:00,27.1690,-82.9260,1015.99,11111222 
COMPS,ioos:station:USF.COMPS:C10:1,2019-09-16T13:35:00,27.1690,-82.9260,1016.38,11111222 
COMPS,ioos:station:USF.COMPS:C10:1,2019-09-16T14:35:00,27.1690,-82.9260,1016.56,11111222 
COMPS,ioos:station:USF.COMPS:C10:1,2019-09-16T15:35:00,27.1690,-82.9260,1016.24,11111222 
COMPS,ioos:station:USF.COMPS:C10:1,2019-09-16T16:35:00,27.1690,-82.9260,1016.0,11111222 
COMPS,ioos:station:USF.COMPS:C10:1,2019-09-16T17:35:00,27.1690,-82.9260,1015.79,11111222 
COMPS,ioos:station:USF.COMPS:C10:1,2019-09-16T18:35:00,27.1690,-82.9260,1015.36,11111222 
COMPS,ioos:station:USF.COMPS:C10:1,2019-09-16T19:35:00,27.1690,-82.9260,1014.71,11111222 
COMPS,ioos:station:USF.COMPS:C10:1,2019-09-16T20:35:00,27.1690,-82.9260,1014.14,11111222 
COMPS,ioos:station:USF.COMPS:C10:1,2019-09-16T21:35:00,27.1690,-82.9260,1014.0,11111222 
COMPS,ioos:station:USF.COMPS:C10:1,2019-09-16T22:35:00,27.1690,-82.9260,1014.0,11111222 
COMPS,ioos:station:USF.COMPS:C10:1,2019-09-16T23:35:00,27.1690,-82.9260,1014.07,11111222 
COMPS,ioos:station:USF.COMPS:C10:1,2019-09-17T00:35:00,27.1690,-82.9260,1014.14,11111222 
COMPS,ioos:station:USF.COMPS:C10:1,2019-09-17T01:35:00,27.1690,-82.9260,1014.44,11111222 